This is the latest recevied weather packets stored in our database for station/object IZ2PAG-10. If no packets are shown the sender has not sent any weather packets the latest 10 day(s).
| Time | Temp. | Humidity | Pressure | Rain* | Wind** | Luminosity | Snow |
|---|---|---|---|---|---|---|---|
| 1788417587 | 26.67° C | 52% | 1021.8 hPa | - | - | - | - |
| 1788415787 | 26.67° C | 53% | 1021.7 hPa | - | - | - | - |
| 1788413987 | 26.11° C | 52% | 1021.4 hPa | - | - | - | - |
| 1788412187 | 26.11° C | 50% | 1021.2 hPa | - | - | - | - |
| 1788410426 | 26.11° C | 53% | 1020.9 hPa | - | - | - | - |
| 1788410387 | 26.11° C | 53% | 1020.9 hPa | - | - | - | - |
| 1788408626 | 26.11° C | 51% | 1020.7 hPa | - | - | - | - |
| 1788408586 | 26.11° C | 51% | 1020.7 hPa | - | - | - | - |
| 1788406786 | 26.11° C | 52% | 1020.8 hPa | - | - | - | - |
| 1788405027 | 26.11° C | 52% | 1020.8 hPa | - | - | - | - |
| 1788404985 | 26.11° C | 52% | 1020.8 hPa | - | - | - | - |
| 1788403185 | 26.11° C | 50% | 1020.8 hPa | - | - | - | - |
| 1788401418 | 26.11° C | 54% | 1020.7 hPa | - | - | - | - |
| 1788401385 | 26.11° C | 54% | 1020.7 hPa | - | - | - | - |
| 1788399585 | 26.67° C | 51% | 1020.8 hPa | - | - | - | - |
| 1788397911 | 26.11° C | 52% | 1020.9 hPa | - | - | - | - |
| 1788397785 | 26.11° C | 52% | 1020.9 hPa | - | - | - | - |
| 1788396017 | 26.11° C | 53% | 1020.7 hPa | - | - | - | - |
| 1788395985 | 26.11° C | 53% | 1020.7 hPa | - | - | - | - |
| 1788394185 | 26.67° C | 50% | 1020.7 hPa | - | - | - | - |
| 1788392384 | 26.11° C | 54% | 1020.7 hPa | - | - | - | - |
| 1788390584 | 26.67° C | 51% | 1020.7 hPa | - | - | - | - |
| 1788388784 | 26.11° C | 52% | 1020.7 hPa | - | - | - | - |
| 1788386984 | 26.11° C | 53% | 1020.6 hPa | - | - | - | - |
| 1788385184 | 26.67° C | 52% | 1020.5 hPa | - | - | - | - |
* Rain since midnight (hover to see other rain measurements)
** Current wind speed in m/s (hover to see current wind gust speed)